Hebron, NE

1:18 AM CST on January 23, 2017 (GMT -0600)
Hebron Municipal

Weather History for KHJH - March, 2013

Change the Weather History Date:

Monday, March 11, 2013

  Actual Average Record
Temperature  
Mean Temperature 23 °F -  
Max Temperature 36 °F 51 °F 78 °F (1989)
Min Temperature 10 °F 28 °F 5 °F (1969)
Degree Days  
Heating Degree Days 42    
Moisture  
Dew Point 17 °F    
Average Humidity 71    
Maximum Humidity 83    
Minimum Humidity 47    
Precipitation  
Precipitation 0.00 in - - ()
Sea Level Pressure  
Sea Level Pressure 29.96 in    
Wind  
Wind Speed 8 mph (WNW)    
Max Wind Speed 13 mph    
Max Gust Speed 21 mph    
Visibility 10 miles    
Events Snow    
Averages and records for this station are not official NWS values.
T = Trace of Precipitation, MM = Missing Value Source: NWS Daily Summary

Daily Weather History Graph

Daily Weather History Graph

Search for Another Location

Airport or City:

Trip Planner

Search our weather history database for the weather conditions in past years. The results will help you decide how hot, cold, wet, or windy it might be!

Date:

Astronomy

Mar. 11, 2013 Rise Set
Actual Time 7:47 AM CDT 7:33 PM CDT
Civil Twilight 7:20 AM CDT 8:00 PM CDT
Nautical Twilight 6:49 AM CDT 8:31 PM CDT
Astronomical Twilight 6:17 AM CDT 9:03 PM CDT
Moon 7:22 AM CDT (3/11) 7:47 PM CDT (3/11)
Length of Visible Light 12h 39m
Length of Day
11h 45m
Waning Crescent, 0% of the Moon is Illuminated
Mar 11
Waning Crescent
Mar 11
New
Mar 19
First Quarter
Mar 27
Full
Apr 2
Last Quarter

Hourly Weather History & Observations

Time (CDT) Temp. Windchill Dew Point Humidity Pressure Visibility Wind Dir Wind Speed Gust Speed Precip Events Conditions
12:15 AM 23.5 °F 11.8 °F 16.7 °F 75% 30.00 in 10.0 mi NNW 12.7 mph 19.6 mph N/A   Scattered Clouds
12:35 AM 23.0 °F 11.7 °F 16.5 °F 76% 29.99 in 10.0 mi NNW 11.5 mph 18.4 mph N/A   Clear
12:55 AM 23.0 °F 11.1 °F 15.8 °F 74% 29.99 in 10.0 mi North 12.7 mph 20.7 mph N/A   Clear
1:15 AM 22.8 °F 12.9 °F 16.0 °F 75% 29.99 in 10.0 mi NW 9.2 mph - N/A   Clear
1:35 AM 22.1 °F 11.3 °F 15.8 °F 77% 29.99 in 10.0 mi NW 10.4 mph - N/A   Scattered Clouds
1:55 AM 21.7 °F 11.5 °F 15.6 °F 77% 29.99 in 10.0 mi NW 9.2 mph - N/A   Mostly Cloudy
2:15 AM 21.6 °F 11.3 °F 15.4 °F 77% 29.98 in 10.0 mi NNW 9.2 mph - N/A   Overcast
2:35 AM 21.0 °F 11.4 °F 14.9 °F 77% 29.97 in 10.0 mi NNW 8.1 mph - N/A   Scattered Clouds
2:55 AM 20.1 °F 10.3 °F 14.5 °F 79% 29.98 in 10.0 mi NW 8.1 mph - N/A   Clear
3:15 AM 19.2 °F 7.0 °F 14.0 °F 80% 29.99 in 10.0 mi NW 11.5 mph 16.1 mph N/A   Scattered Clouds
3:35 AM 19.4 °F 7.9 °F 14.0 °F 80% 29.98 in 10.0 mi NW 10.4 mph 16.1 mph N/A   Overcast
3:55 AM 19.4 °F 8.6 °F 14.0 °F 80% 29.97 in 10.0 mi NW 9.2 mph - N/A Snow Light Snow
4:15 AM 19.8 °F 7.1 °F 13.8 °F 78% 29.96 in 10.0 mi NNW 12.7 mph - N/A Snow Light Snow
4:35 AM 18.1 °F 10.0 °F 12.4 °F 78% 29.95 in 10.0 mi NW 5.8 mph - N/A   Scattered Clouds
4:55 AM 15.8 °F 6.1 °F 10.9 °F 81% 29.95 in 10.0 mi NW 6.9 mph - N/A   Clear
5:15 AM 14.5 °F 4.6 °F 9.9 °F 82% 29.95 in 10.0 mi WNW 6.9 mph - N/A   Clear
5:35 AM 13.8 °F 4.9 °F 9.3 °F 82% 29.95 in 10.0 mi WNW 5.8 mph - N/A   Clear
5:55 AM 12.9 °F 2.6 °F 8.6 °F 83% 29.96 in 10.0 mi WNW 6.9 mph - N/A   Clear
6:15 AM 12.0 °F 5.9 °F 7.7 °F 83% 29.95 in 10.0 mi NW 3.5 mph - N/A   Clear
6:35 AM 10.9 °F 1.4 °F 6.8 °F 83% 29.95 in 10.0 mi West 5.8 mph - N/A   Clear
6:55 AM 11.8 °F 0.3 °F 7.3 °F 82% 29.96 in 10.0 mi WNW 8.1 mph - N/A   Clear
7:15 AM 12.7 °F 2.4 °F 7.7 °F 80% 29.97 in 10.0 mi WNW 6.9 mph - N/A   Clear
7:35 AM 13.1 °F 4.0 °F 7.7 °F 79% 29.97 in 10.0 mi West 5.8 mph - N/A   Clear
7:55 AM 12.6 °F 4.8 °F 7.5 °F 80% 29.97 in 10.0 mi West 4.6 mph - N/A   Clear
8:15 AM 14.0 °F 3.9 °F 8.2 °F 78% 29.97 in 10.0 mi West 6.9 mph - N/A   Clear
8:35 AM 14.2 °F 4.1 °F 8.2 °F 77% 29.98 in 10.0 mi West 6.9 mph - N/A   Clear
8:55 AM 14.0 °F 3.9 °F 7.7 °F 76% 29.99 in 10.0 mi West 6.9 mph - N/A   Clear
9:15 AM 14.7 °F 5.9 °F 8.4 °F 76% 29.98 in 10.0 mi WNW 5.8 mph - N/A   Clear
9:35 AM 16.5 °F 6.0 °F 9.5 °F 74% 29.99 in 10.0 mi WNW 8.1 mph - N/A   Clear
9:55 AM 18.0 °F 8.7 °F 9.9 °F 71% 29.99 in 10.0 mi NW 6.9 mph - N/A   Clear
10:15 AM 20.1 °F 10.3 °F 11.5 °F 69% 29.99 in 10.0 mi NW 8.1 mph - N/A   Clear
10:35 AM 21.2 °F 10.9 °F 11.5 °F 66% 29.99 in 10.0 mi NW 9.2 mph - N/A   Clear
10:55 AM 21.7 °F 12.3 °F 11.7 °F 65% 29.99 in 10.0 mi NW 8.1 mph - N/A   Clear
11:15 AM 23.0 °F 13.1 °F 11.8 °F 62% 29.98 in 10.0 mi NW 9.2 mph - N/A   Clear
11:35 AM 23.7 °F 12.6 °F 11.8 °F 61% 29.98 in 10.0 mi NW 11.5 mph - N/A   Clear
11:55 AM 24.3 °F 15.4 °F 12.2 °F 60% 29.98 in 10.0 mi NW 8.1 mph - N/A   Clear
12:15 PM 25.2 °F 14.4 °F 12.7 °F 59% 29.98 in 10.0 mi WNW 11.5 mph - N/A   Clear
12:35 PM 26.2 °F 17.1 °F 12.4 °F 56% 29.97 in 10.0 mi NW 9.2 mph - N/A   Clear
12:55 PM 27.1 °F 18.2 °F 14.5 °F 59% 29.98 in 10.0 mi West 9.2 mph - N/A   Clear
1:15 PM 28.4 °F 21.2 °F 13.6 °F 54% 29.97 in 10.0 mi WNW 6.9 mph - N/A   Clear
1:35 PM 29.7 °F 23.7 °F 14.4 °F 53% 29.96 in 10.0 mi West 5.8 mph - N/A   Clear
1:55 PM 30.2 °F 25.4 °F 13.6 °F 50% 29.94 in 10.0 mi West 4.6 mph - N/A   Clear
2:15 PM 31.6 °F 27.0 °F 14.4 °F 49% 29.93 in 10.0 mi West 4.6 mph - N/A   Clear
2:35 PM 32.2 °F 28.9 °F 13.8 °F 47% 29.93 in 10.0 mi WSW 3.5 mph - N/A   Clear
2:55 PM 32.5 °F 26.2 °F 15.4 °F 49% 29.92 in 10.0 mi SW 6.9 mph - N/A   Clear
3:15 PM 33.4 °F 27.3 °F 16.2 °F 49% 29.92 in 10.0 mi West 6.9 mph - N/A   Clear
3:55 PM 34.0 °F 28.0 °F 20.7 °F 58% 29.91 in 10.0 mi SSW 6.9 mph - N/A   Clear
4:15 PM 35.2 °F 29.5 °F 20.8 °F 56% 29.90 in 10.0 mi SW 6.9 mph - N/A   Clear
4:35 PM 35.8 °F 28.3 °F 20.8 °F 55% 29.90 in 10.0 mi SW 10.4 mph - N/A   Clear
4:55 PM 36.7 °F 29.4 °F 21.7 °F 55% 29.90 in 10.0 mi SSW 10.4 mph - N/A   Clear
5:15 PM 36.7 °F 30.5 °F 23.2 °F 58% 29.90 in 10.0 mi SW 8.1 mph - N/A   Clear
5:35 PM 36.5 °F 29.7 °F 24.3 °F 61% 29.90 in 10.0 mi SSW 9.2 mph - N/A   Clear
5:55 PM 36.3 °F 30.1 °F 24.6 °F 63% 29.89 in 10.0 mi SSW 8.1 mph - N/A   Clear
6:15 PM 36.5 °F 31.8 °F 25.3 °F 64% 29.89 in 10.0 mi SSW 5.8 mph - N/A   Clear
6:35 PM 36.1 °F 31.4 °F 25.7 °F 66% 29.90 in 10.0 mi SW 5.8 mph - N/A   Clear
6:55 PM 36.9 °F 30.7 °F 26.6 °F 66% 29.90 in 10.0 mi SW 8.1 mph - N/A   Clear
7:15 PM 35.6 °F 30.7 °F 27.0 °F 71% 29.91 in 10.0 mi SW 5.8 mph - N/A   Clear
7:35 PM 34.9 °F 32.0 °F 27.3 °F 74% 29.91 in 10.0 mi WSW 3.5 mph - N/A   Clear
7:55 PM 33.6 °F 27.5 °F 27.1 °F 77% 29.92 in 10.0 mi SW 6.9 mph - N/A   Clear
8:15 PM 34.2 °F - 27.3 °F 76% 29.93 in 10.0 mi Calm Calm - N/A   Clear
8:35 PM 34.0 °F - 27.1 °F 76% 29.93 in 10.0 mi Calm Calm - N/A   Clear
8:55 PM 33.1 °F - 26.8 °F 78% 29.94 in 10.0 mi Calm Calm - N/A   Clear
9:15 PM 32.7 °F - 27.0 °F 79% 29.96 in 10.0 mi Calm Calm - N/A   Clear
9:35 PM 32.0 °F 28.7 °F 26.8 °F 81% 29.98 in 10.0 mi West 3.5 mph - N/A   Clear
9:55 PM 32.4 °F - 27.3 °F 82% 29.97 in 10.0 mi Calm Calm - N/A   Clear
10:15 PM 32.9 °F 29.8 °F 27.3 °F 80% 29.99 in 10.0 mi West 3.5 mph - N/A   Clear
10:35 PM 33.8 °F - 27.5 °F 78% 30.00 in 10.0 mi Calm Calm - N/A   Clear
10:55 PM 32.2 °F - 26.6 °F 80% 30.00 in 10.0 mi Calm Calm - N/A   Clear
11:15 PM 32.0 °F - 27.5 °F 83% 30.02 in 10.0 mi Calm Calm - N/A   Clear
11:35 PM 34.2 °F - 27.3 °F 76% 30.03 in 10.0 mi Calm Calm - N/A   Clear
11:55 PM 34.2 °F 31.2 °F 27.3 °F 76% 30.03 in 10.0 mi SW 3.5 mph - N/A   Clear